Dewpoint
49 52 61 64 63 63 61 61 64 65 65 65 65 65 66 65 65 66 66 65 64 60
46 49 50 51 53 62 65 63 64 65 65 64 64 65 65 64 65 65 66 67 66 64
42 44 48 49 50 50 51 61 64 64 65 65 65 65 65 65 65 65 66 64 65 65
40 42 44 45 46 47 49 50 52 64 64 64 65 65 65 65 64 64 65 65 65 65
41 40 42 43 43 45 46 47 47 50 59 65 65 65 65 65 65 64 64 65 65 65
39 39 40 41 43 42 43 45 46 47 48 54 64 65 65 65 66 66 65 66 66 65
39 39 38 39 40 40 41 42 42 43 46 48 50 63 63 64 65 66 65 66 65 64
37 38 40 39 39 39 40 40 40 42 43 46 48 49 48 51 61 63 63 63 63 63
35 35 37 39 40 39 39 39 40 40 40 41 40 40 41 44 49 58 62 61 62 62
33 34 35 35 37 39 39 38 39 39 40 40 41 38 39 38 42 50 58 61 62 62
33 33 33 34 34 37 38 39 38 39 40 40 38 38 38 37 41 44 51 57 58 59
33 32 33 33 34 34 36 37 38 38 39 39 41 38 37 39 41 41 42 47 55 56
32 32 32 33 34 34 34 33 35 35 37 38 39 38 38 38 42 41 44 47 48 44
31 32 32 32 33 33 32 33 34 34 37 36 38 39 37 38 40 41 44 47 49 49
Lifted_Index
2 0 -1 -2 -3 -3 -3 -3 -3 -2 -2 -2 -1 -1 -1 -2 -2 -2 -2 -2 -2 -1
5 3 1 -0 -2 -3 -3 -3 -3 -3 -2 -2 -2 -2 -2 -2 -2 -2 -2 -2 -2 -2
9 8 6 4 2 -0 -2 -2 -3 -3 -3 -3 -3 -3 -3 -2 -2 -2 -2 -2 -3 -3
10 10 9 8 7 5 3 1 -1 -2 -3 -3 -3 -4 -4 -3 -3 -3 -3 -3 -3 -3
10 10 10 10 10 9 8 5 2 -0 -2 -3 -3 -4 -4 -4 -4 -4 -3 -3 -3 -3
10 10 10 10 10 10 10 8 6 4 1 -1 -2 -3 -4 -4 -5 -4 -4 -4 -4 -4
12 11 11 10 10 10 10 9 9 7 6 3 1 -1 -2 -3 -4 -4 -4 -3 -3 -3
13 13 13 12 11 10 10 9 9 9 8 7 5 3 1 -0 -1 -2 -2 -2 -2 -1
14 14 14 14 13 12 10 10 9 9 9 8 8 7 5 4 3 2 -0 -1 -1 -1
14 14 15 14 14 14 12 11 10 10 9 9 8 8 8 8 7 5 3 0 -1 -1
14 14 14 14 15 14 14 13 12 11 11 10 9 8 8 8 8 8 6 3 2 1
13 13 13 13 14 14 14 13 13 12 12 12 11 9 9 8 8 8 7 6 5 4
12 12 12 12 13 13 13 13 13 12 12 12 12 11 10 9 9 8 8 7 7 7
12 12 12 12 12 12 12 12 12 12 12 12 13 12 11 10 10 9 8 8 7 7